Location: Unspecified
(0.0000°N, 0.0000°E)
Time: 13:50:44
(UTC+00:00)

Envisat - Pass Details

Date: 01 April 2020
Orbit: 764 x 766 km, 98.1° (Epoch: 02 April)

Event Time Altitude Azimuth Distance (km) Brightness Sun altitude
Rises 04:57:52 0° 51° (NE) 3,217 7.2 -16.4°
Reaches altitude 10° 05:01:46 10° 81° (E) 2,296 6.9 -15.5°
Maximum altitude 05:03:35 12° 103° (ESE) 2,166 6.5 -15.0°
Drops below altitude 10° 05:05:25 10° 124° (SE) 2,300 6.2 -14.6°
Sets 05:09:19 0° 155° (SSE) 3,230 6.5 -13.6°
